| time (UTC) | temp F | wind direction | speed MPH | gust MPH | rain 1hr in | rain 24hr in | rain mn in | humidity % | barometer mb |
| 20260510220612 | 74 | 291 | 3.0 | 6.0 | 0.00 | 0.00 | 0.00 | 63 | 1012.1 |
| 20260510220008 | 74 | 226 | 3.0 | 7.0 | 0.00 | 0.00 | 0.00 | 63 | 1012.2 |
| 20260510215609 | 74 | 201 | 2.0 | 7.0 | 0.00 | 0.00 | 0.00 | 64 | 1012.1 |
| 20260510214602 | 74 | 214 | 3.0 | 7.0 | 0.00 | 0.00 | 0.00 | 64 | 1012.2 |
| 20260510213003 | 74 | 216 | 2.0 | 7.0 | 0.00 | 0.00 | 0.00 | 64 | 1012.3 |
| 20260510212452 | 74 | 200 | 3.0 | 9.0 | 0.00 | 0.00 | 0.00 | 64 | 1012.2 |
| 20260510211603 | 72 | 253 | 3.0 | 10.0 | 0.00 | 0.00 | 0.00 | 65 | 1012.3 |
| 20260510211423 | 73 | 245 | 3.0 | 9.0 | 0.00 | 0.00 | 0.00 | 66 | 1012.3 |
| 20260510210400 | 73 | 218 | 3.0 | 9.0 | 0.00 | 0.00 | 0.00 | 65 | 1012.3 |
| 20260510210113 | 73 | 257 | 3.0 | 9.0 | 0.00 | 0.00 | 0.00 | 65 | 1012.4 |
| 20260510205410 | 73 | 148 | 3.0 | 8.0 | 0.00 | 0.00 | 0.00 | 64 | 1012.4 |
| 20260510204505 | 73 | 202 | 3.0 | 9.0 | 0.00 | 0.00 | 0.00 | 65 | 1012.5 |
| 20260510204351 | 73 | 172 | 4.0 | 8.0 | 0.00 | 0.00 | 0.00 | 65 | 1012.5 |
| 20260510203328 | 74 | 203 | 3.0 | 10.0 | 0.00 | 0.00 | 0.00 | 64 | 1012.4 |
| 20260510203102 | 74 | 218 | 5.0 | 10.0 | 0.00 | 0.00 | 0.00 | 64 | 1012.5 |
| 20260510202307 | 75 | 216 | 3.0 | 10.0 | 0.00 | 0.00 | 0.00 | 65 | 1012.5 |
| 20260510201502 | 74 | 212 | 3.0 | 9.0 | 0.00 | 0.00 | 0.00 | 63 | 1012.5 |
| 20260510201310 | 75 | 196 | 3.0 | 8.0 | 0.00 | 0.00 | 0.00 | 63 | 1012.5 |
| 20260510200328 | 75 | 214 | 4.0 | 9.0 | 0.00 | 0.00 | 0.00 | 62 | 1012.4 |
| 20260510200002 | 75 | 261 | 4.0 | 10.0 | 0.00 | 0.00 | 0.00 | 62 | 1012.5 |
| 20260510195300 | 76 | 219 | 3.0 | 9.0 | 0.00 | 0.00 | 0.00 | 62 | 1012.5 |
| 20260510194602 | 75 | 215 | 4.0 | 8.0 | 0.00 | 0.00 | 0.00 | 61 | 1012.6 |
| 20260510193203 | 76 | 218 | 2.0 | 8.0 | 0.00 | 0.00 | 0.00 | 58 | 1012.6 |
| 20260510193005 | 75 | 21 | 3.0 | 8.0 | 0.00 | 0.00 | 0.00 | 59 | 1012.7 |
| 20260510192137 | 75 | 238 | 3.0 | 8.0 | 0.00 | 0.00 | 0.00 | 59 | 1012.6 |
| 20260510191603 | 74 | 210 | 3.0 | 9.0 | 0.00 | 0.00 | 0.00 | 59 | 1012.7 |
| 20260510191137 | 75 | 137 | 2.0 | 8.0 | 0.00 | 0.00 | 0.00 | 59 | 1012.6 |
| 20260510190103 | 74 | 204 | 2.0 | 9.0 | 0.00 | 0.00 | 0.00 | 61 | 1012.8 |
| 20260510185004 | 73 | 217 | 3.0 | 7.0 | 0.00 | 0.00 | 0.00 | 62 | 1012.9 |
| 20260510184502 | 72 | 192 | 4.0 | 8.0 | 0.00 | 0.00 | 0.00 | 65 | 1012.9 |
| 20260510183938 | 72 | 218 | 3.0 | 8.0 | 0.00 | 0.00 | 0.00 | 66 | 1012.9 |
| 20260510183103 | 71 | 228 | 4.0 | 9.0 | 0.00 | 0.00 | 0.00 | 65 | 1013.0 |
| 20260510182936 | 72 | 274 | 4.0 | 8.0 | 0.00 | 0.00 | 0.00 | 67 | 1012.9 |
| 20260510181503 | 71 | 191 | 4.0 | 8.0 | 0.00 | 0.00 | 0.00 | 68 | 1012.9 |
| 20260510180809 | 71 | 210 | 3.0 | 7.0 | 0.00 | 0.00 | 0.00 | 69 | 1012.8 |
| 20260510180002 | 70 | 225 | 2.0 | 8.0 | 0.00 | 0.00 | 0.00 | 70 | 1012.8 |
| 20260510175756 | 70 | 239 | 3.0 | 7.0 | 0.00 | 0.00 | 0.00 | 72 | 1012.7 |
| 20260510174752 | 70 | 204 | 2.0 | 5.0 | 0.00 | 0.00 | 0.00 | 72 | 1012.7 |
| 20260510174603 | 69 | 204 | 3.0 | 6.0 | 0.00 | 0.00 | 0.00 | 72 | 1012.7 |
| 20260510173003 | 68 | 187 | 3.0 | 6.0 | 0.00 | 0.00 | 0.00 | 76 | 1012.6 |
| 20260510172643 | 69 | 199 | 1.0 | 5.0 | 0.00 | 0.00 | 0.00 | 75 | 1012.6 |
| 20260510171606 | 67 | 214 | 2.0 | 5.0 | 0.00 | 0.00 | 0.00 | 77 | 1012.8 |
| 20260510170117 | 66 | 136 | 3.0 | 5.0 | 0.00 | 0.00 | 0.00 | 78 | 1012.8 |
| 20260510165344 | 66 | 257 | 1.0 | 6.0 | 0.00 | 0.00 | 0.00 | 79 | 1012.7 |
| 20260510164342 | 66 | 277 | 1.0 | 6.0 | 0.00 | 0.00 | 0.00 | 80 | 1012.7 |
| 20260510163002 | 64 | 245 | 2.0 | 6.0 | 0.00 | 0.00 | 0.00 | 83 | 1012.7 |
| 20260510162300 | 64 | 198 | 1.0 | 3.0 | 0.00 | 0.00 | 0.00 | 84 | 1012.5 |
| 20260510161602 | 63 | 188 | 1.0 | 4.0 | 0.00 | 0.00 | 0.00 | 86 | 1012.6 |
| 20260510161256 | 63 | 281 | 0.0 | 1.0 | 0.00 | 0.00 | 0.00 | 88 | 1012.5 |
| 20260510160250 | 61 | 91 | 0.0 | 4.0 | 0.00 | 0.00 | 0.00 | 90 | 1012.5 |
| 20260510160112 | 61 | 6 | 0.0 | 3.0 | 0.00 | 0.00 | 0.00 | 91 | 1012.6 |
| 20260510155307 | 60 | 35 | 0.0 | 4.0 | 0.00 | 0.00 | 0.00 | 91 | 1012.5 |
| 20260510154311 | 60 | 33 | 0.0 | 4.0 | 0.00 | 0.00 | 0.00 | 92 | 1012.5 |
| 20260510153241 | 60 | 202 | 0.0 | 1.0 | 0.00 | 0.00 | 0.00 | 94 | 1012.5 |
| 20260510153104 | 59 | 199 | 0.0 | 1.0 | 0.00 | 0.00 | 0.00 | 95 | 1012.6 |
| 20260510152211 | 59 | 32 | 0.0 | 0.0 | 0.00 | 0.00 | 0.00 | 95 | 1012.6 |
| 20260510151504 | 58 | 334 | 0.0 | 1.0 | 0.00 | 0.00 | 0.00 | 96 | 1012.6 |
| 20260510151220 | 58 | 334 | 0.0 | 0.0 | 0.00 | 0.00 | 0.00 | 96 | 1012.5 |
| 20260510150223 | 58 | 1 | 0.0 | 2.0 | 0.00 | 0.00 | 0.00 | 96 | 1012.5 |
| 20260510150002 | 57 | 34 | 1.0 | 3.0 | 0.00 | 0.00 | 0.00 | 96 | 1012.6 |
| 20260510145228 | 58 | 33 | 0.0 | 0.0 | 0.00 | 0.00 | 0.00 | 96 | 1012.5 |
| 20260510144602 | 57 | 32 | 0.0 | 0.0 | 0.00 | 0.00 | 0.00 | 97 | 1012.5 |
| 20260510144210 | 58 | 32 | 0.0 | 0.0 | 0.00 | 0.00 | 0.00 | 96 | 1012.4 |
| 20260510143222 | 57 | 32 | 0.0 | 0.0 | 0.00 | 0.00 | 0.00 | 96 | 1012.3 |
| 20260510143002 | 57 | 32 | 0.0 | 1.0 | 0.00 | 0.00 | 0.00 | 96 | 1012.4 |
| 20260510142239 | 57 | 32 | 0.0 | 0.0 | 0.00 | 0.00 | 0.00 | 96 | 1012.3 |
| 20260510141603 | 57 | 32 | 0.0 | 2.0 | 0.00 | 0.00 | 0.00 | 96 | 1012.3 |
| 20260510141249 | 57 | 348 | 0.0 | 0.0 | 0.00 | 0.00 | 0.00 | 96 | 1012.2 |
| 20260510140243 | 57 | 42 | 0.0 | 0.0 | 0.00 | 0.00 | 0.00 | 96 | 1012.1 |
| 20260510135240 | 57 | 42 | 0.0 | 0.0 | 0.00 | 0.00 | 0.00 | 96 | 1012.1 |
| 20260510134504 | 56 | 42 | 0.0 | 1.0 | 0.00 | 0.00 | 0.00 | 96 | 1012.1 |
| 20260510134252 | 57 | 42 | 0.0 | 0.0 | 0.00 | 0.00 | 0.00 | 97 | 1012.1 |
| 20260510133108 | 57 | 37 | 0.0 | 2.0 | 0.00 | 0.00 | 0.00 | 96 | 1012.1 |
| 20260510132108 | 57 | 350 | 0.0 | 0.0 | 0.00 | 0.00 | 0.00 | 96 | 1011.9 |
| 20260510131503 | 57 | 350 | 0.0 | 0.0 | 0.00 | 0.00 | 0.00 | 96 | 1011.9 |
| 20260510131124 | 57 | 350 | 0.0 | 0.0 | 0.00 | 0.00 | 0.00 | 96 | 1011.8 |
| 20260510130130 | 57 | 41 | 0.0 | 0.0 | 0.00 | 0.00 | 0.00 | 96 | 1011.7 |
| 20260510130004 | 56 | 45 | 0.0 | 2.0 | 0.00 | 0.00 | 0.00 | 96 | 1011.9 |
| 20260510125150 | 57 | 41 | 0.0 | 2.0 | 0.00 | 0.00 | 0.00 | 96 | 1011.8 |
| 20260510124613 | 56 | 37 | 0.0 | 1.0 | 0.00 | 0.00 | 0.00 | 96 | 1011.9 |
| 20260510124200 | 57 | 37 | 0.0 | 0.0 | 0.00 | 0.00 | 0.00 | 96 | 1011.8 |
| 20260510123006 | 56 | 346 | 0.0 | 2.0 | 0.00 | 0.00 | 0.00 | 96 | 1012.1 |
| 20260510122015 | 57 | 349 | 0.0 | 0.0 | 0.00 | 0.00 | 0.00 | 96 | 1011.9 |
| 20260510121602 | 56 | 349 | 0.0 | 1.0 | 0.00 | 0.00 | 0.00 | 96 | 1011.9 |
| 20260510121006 | 57 | 34 | 0.0 | 0.0 | 0.00 | 0.00 | 0.00 | 96 | 1011.8 |
| 20260510120007 | 57 | 5 | 0.0 | 0.0 | 0.00 | 0.00 | 0.00 | 96 | 1011.8 |
| 20260510115016 | 57 | 5 | 0.0 | 0.0 | 0.00 | 0.00 | 0.00 | 96 | 1011.8 |
| 20260510114504 | 56 | 5 | 0.0 | 1.0 | 0.00 | 0.00 | 0.00 | 96 | 1011.9 |
| 20260510113959 | 57 | 46 | 0.0 | 0.0 | 0.00 | 0.00 | 0.00 | 96 | 1011.8 |
| 20260510113110 | 56 | 46 | 0.0 | 3.0 | 0.00 | 0.00 | 0.00 | 96 | 1011.8 |
| 20260510112927 | 57 | 45 | 0.0 | 0.0 | 0.00 | 0.00 | 0.00 | 96 | 1011.7 |
| 20260510111937 | 57 | 52 | 0.0 | 3.0 | 0.00 | 0.00 | 0.00 | 96 | 1011.6 |
| 20260510111502 | 57 | 28 | 1.0 | 4.0 | 0.00 | 0.00 | 0.00 | 96 | 1011.7 |
| 20260510110931 | 57 | 26 | 0.0 | 3.0 | 0.00 | 0.00 | 0.00 | 96 | 1011.6 |
| 20260510110005 | 57 | 58 | 0.0 | 4.0 | 0.00 | 0.00 | 0.00 | 96 | 1011.8 |
| 20260510105911 | 57 | 58 | 0.0 | 0.0 | 0.00 | 0.00 | 0.00 | 96 | 1011.7 |
| 20260510104610 | 56 | 33 | 0.0 | 2.0 | 0.00 | 0.00 | 0.00 | 96 | 1011.8 |
| 20260510103748 | 57 | 42 | 0.0 | 0.0 | 0.00 | 0.00 | 0.00 | 96 | 1011.7 |
| 20260510103004 | 57 | 50 | 0.0 | 3.0 | 0.00 | 0.00 | 0.00 | 96 | 1011.7 |
| 20260510102736 | 57 | 50 | 0.0 | 2.0 | 0.00 | 0.00 | 0.00 | 96 | 1011.7 |
| 20260510101726 | 57 | 35 | 0.0 | 0.0 | 0.00 | 0.00 | 0.00 | 96 | 1011.7 |
| 20260510101605 | 57 | 35 | 0.0 | 3.0 | 0.00 | 0.00 | 0.00 | 96 | 1011.8 |
| 20260510100703 | 57 | 53 | 0.0 | 0.0 | 0.00 | 0.00 | 0.00 | 96 | 1011.8 |
| 20260510100113 | 57 | 39 | 0.0 | 0.0 | 0.00 | 0.00 | 0.00 | 96 | 1011.8 |
| 20260510095648 | 57 | 39 | 0.0 | 0.0 | 0.00 | 0.00 | 0.00 | 96 | 1011.9 |
| 20260510094618 | 57 | 39 | 0.0 | 0.0 | 0.00 | 0.00 | 0.00 | 96 | 1011.8 |
| 20260510094504 | 56 | 39 | 0.0 | 2.0 | 0.00 | 0.00 | 0.00 | 96 | 1011.9 |
| 20260510093003 | 56 | 27 | 0.0 | 3.0 | 0.00 | 0.00 | 0.00 | 96 | 1011.9 |
| 20260510092511 | 57 | 41 | 0.0 | 1.0 | 0.00 | 0.00 | 0.00 | 96 | 1011.8 |
| 20260510091612 | 56 | 36 | 2.0 | 3.0 | 0.00 | 0.00 | 0.00 | 96 | 1011.9 |
| 20260510091445 | 57 | 34 | 0.0 | 2.0 | 0.00 | 0.00 | 0.00 | 96 | 1011.9 |
| 20260510090439 | 57 | 45 | 0.0 | 1.0 | 0.00 | 0.00 | 0.00 | 96 | 1011.9 |
| 20260510090129 | 56 | 34 | 0.0 | 1.0 | 0.00 | 0.00 | 0.00 | 96 | 1011.9 |
| 20260510085434 | 57 | 34 | 0.0 | 0.0 | 0.00 | 0.00 | 0.00 | 95 | 1011.9 |
| 20260510084502 | 56 | 46 | 0.0 | 2.0 | 0.00 | 0.00 | 0.00 | 95 | 1011.9 |
| 20260510084428 | 57 | 35 | 0.0 | 0.0 | 0.00 | 0.00 | 0.00 | 95 | 1011.8 |
| 20260510083448 | 57 | 146 | 0.0 | 0.0 | 0.00 | 0.00 | 0.00 | 95 | 1011.8 |
| 20260510083114 | 56 | 53 | 0.0 | 2.0 | 0.00 | 0.00 | 0.00 | 95 | 1011.9 |
| 20260510082449 | 56 | 53 | 0.0 | 0.0 | 0.00 | 0.00 | 0.00 | 95 | 1011.9 |
| 20260510081509 | 56 | 53 | 0.0 | 0.0 | 0.00 | 0.00 | 0.00 | 95 | 1012.1 |
| 20260510081428 | 56 | 52 | 0.0 | 0.0 | 0.00 | 0.00 | 0.00 | 95 | 1012.0 |
| 20260510080403 | 56 | 53 | 0.0 | 0.0 | 0.00 | 0.00 | 0.00 | 95 | 1012.1 |
| 20260510080008 | 55 | 53 | 0.0 | 0.0 | 0.00 | 0.00 | 0.00 | 95 | 1012.3 |
| 20260510075357 | 56 | 52 | 0.0 | 0.0 | 0.00 | 0.00 | 0.00 | 95 | 1012.2 |
| 20260510074607 | 55 | 53 | 0.0 | 1.0 | 0.00 | 0.00 | 0.00 | 95 | 1012.3 |
| 20260510074415 | 56 | 51 | 0.0 | 0.0 | 0.00 | 0.00 | 0.00 | 95 | 1012.2 |
| 20260510073429 | 55 | 186 | 0.0 | 0.0 | 0.00 | 0.00 | 0.00 | 95 | 1012.4 |
| 20260510073002 | 55 | 186 | 0.0 | 0.0 | 0.00 | 0.00 | 0.00 | 95 | 1012.4 |
| 20260510072406 | 55 | 186 | 0.0 | 0.0 | 0.00 | 0.00 | 0.00 | 95 | 1012.2 |
| 20260510071602 | 54 | 186 | 0.0 | 0.0 | 0.00 | 0.00 | 0.00 | 95 | 1012.3 |
| 20260510071351 | 55 | 186 | 0.0 | 0.0 | 0.00 | 0.00 | 0.00 | 95 | 1012.3 |
| 20260510070345 | 55 | 186 | 0.0 | 0.0 | 0.00 | 0.00 | 0.00 | 95 | 1012.2 |
| 20260510070109 | 54 | 186 | 0.0 | 0.0 | 0.00 | 0.00 | 0.00 | 95 | 1012.2 |
| 20260510065402 | 55 | 186 | 0.0 | 0.0 | 0.00 | 0.00 | 0.00 | 94 | 1012.1 |
| 20260510064507 | 54 | 186 | 0.0 | 0.0 | 0.00 | 0.00 | 0.00 | 94 | 1012.3 |
| 20260510064342 | 55 | 186 | 0.0 | 0.0 | 0.00 | 0.00 | 0.00 | 94 | 1012.2 |
| 20260510063355 | 56 | 186 | 0.0 | 0.0 | 0.00 | 0.00 | 0.00 | 94 | 1012.3 |
| 20260510063106 | 55 | 186 | 0.0 | 0.0 | 0.00 | 0.00 | 0.00 | 94 | 1012.4 |
| 20260510062336 | 56 | 186 | 0.0 | 0.0 | 0.00 | 0.00 | 0.00 | 95 | 1012.2 |
| 20260510061504 | 55 | 186 | 0.0 | 0.0 | 0.00 | 0.00 | 0.00 | 93 | 1012.3 |
| 20260510061322 | 56 | 186 | 0.0 | 0.0 | 0.00 | 0.00 | 0.00 | 93 | 1012.2 |
| 20260510060334 | 56 | 186 | 0.0 | 0.0 | 0.00 | 0.00 | 0.00 | 95 | 1012.2 |
| 20260510060011 | 55 | 186 | 0.0 | 0.0 | 0.00 | 0.00 | 0.00 | 95 | 1012.3 |
| 20260510055348 | 55 | 186 | 0.0 | 0.0 | 0.00 | 0.00 | 0.00 | 94 | 1012.3 |
| 20260510054604 | 55 | 186 | 0.0 | 0.0 | 0.00 | 0.00 | 0.00 | 93 | 1012.3 |
| 20260510054345 | 55 | 186 | 0.0 | 0.0 | 0.00 | 0.00 | 0.00 | 93 | 1012.2 |
| 20260510053312 | 56 | 186 | 0.0 | 0.0 | 0.00 | 0.00 | 0.00 | 94 | 1012.3 |
| 20260510053004 | 55 | 186 | 0.0 | 0.0 | 0.00 | 0.00 | 0.00 | 94 | 1012.4 |
| 20260510052318 | 56 | 186 | 0.0 | 0.0 | 0.00 | 0.00 | 0.00 | 94 | 1012.3 |
| 20260510051610 | 55 | 186 | 0.0 | 0.0 | 0.00 | 0.00 | 0.00 | 93 | 1012.4 |
| 20260510051321 | 56 | 186 | 0.0 | 0.0 | 0.00 | 0.00 | 0.00 | 93 | 1012.4 |
| 20260510050318 | 56 | 186 | 0.0 | 0.0 | 0.00 | 0.00 | 0.00 | 94 | 1012.4 |
| 20260510050114 | 55 | 186 | 0.0 | 0.0 | 0.00 | 0.00 | 0.00 | 93 | 1012.4 |
| 20260510044505 | 55 | 186 | 0.0 | 0.0 | 0.00 | 0.00 | 0.00 | 92 | 1012.2 |
| 20260510044227 | 56 | 186 | 0.0 | 0.0 | 0.00 | 0.00 | 0.00 | 93 | 1012.1 |
| 20260510043248 | 56 | 186 | 0.0 | 0.0 | 0.00 | 0.00 | 0.00 | 92 | 1012.1 |
| 20260510043102 | 55 | 186 | 0.0 | 0.0 | 0.00 | 0.00 | 0.00 | 92 | 1012.1 |
| 20260510042257 | 56 | 186 | 0.0 | 0.0 | 0.00 | 0.00 | 0.00 | 91 | 1012.0 |
| 20260510041502 | 56 | 186 | 0.0 | 0.0 | 0.00 | 0.00 | 0.00 | 92 | 1012.0 |
| 20260510041305 | 57 | 186 | 0.0 | 0.0 | 0.00 | 0.00 | 0.00 | 92 | 1011.9 |
| 20260510040312 | 57 | 186 | 0.0 | 0.0 | 0.00 | 0.00 | 0.00 | 91 | 1011.9 |
| 20260510040003 | 57 | 186 | 0.0 | 0.0 | 0.00 | 0.00 | 0.00 | 91 | 1011.9 |
| 20260510034606 | 57 | 186 | 0.0 | 0.0 | 0.00 | 0.00 | 0.00 | 90 | 1011.7 |
| 20260510034121 | 58 | 186 | 0.0 | 0.0 | 0.00 | 0.00 | 0.00 | 90 | 1011.5 |
| 20260510033108 | 59 | 186 | 0.0 | 0.0 | 0.00 | 0.00 | 0.00 | 90 | 1011.5 |
| 20260510033003 | 58 | 186 | 0.0 | 1.0 | 0.00 | 0.00 | 0.00 | 90 | 1011.5 |
| 20260510032107 | 59 | 227 | 0.0 | 0.0 | 0.00 | 0.00 | 0.00 | 90 | 1011.4 |
| 20260510031610 | 59 | 193 | 0.0 | 3.0 | 0.00 | 0.00 | 0.00 | 90 | 1011.3 |
| 20260510030107 | 59 | 249 | 0.0 | 3.0 | 0.00 | 0.00 | 0.00 | 89 | 1011.1 |
| 20260510030009 | 60 | 248 | 0.0 | 0.0 | 0.00 | 0.00 | 0.00 | 89 | 1011.1 |
| 20260510025013 | 60 | 219 | 0.0 | 2.0 | 0.00 | 0.00 | 0.00 | 88 | 1011.0 |
| 20260510024502 | 60 | 156 | 0.0 | 2.0 | 0.00 | 0.00 | 0.00 | 87 | 1011.0 |
| 20260510023940 | 61 | 176 | 0.0 | 1.0 | 0.00 | 0.00 | 0.00 | 87 | 1010.9 |
| 20260510023102 | 61 | 129 | 0.0 | 3.0 | 0.00 | 0.00 | 0.00 | 86 | 1010.9 |
| 20260510023003 | 61 | 144 | 0.0 | 0.0 | 0.00 | 0.00 | 0.00 | 86 | 1010.9 |
| 20260510021506 | 62 | 139 | 1.0 | 2.0 | 0.00 | 0.00 | 0.00 | 85 | 1010.8 |
| 20260510020827 | 62 | 210 | 0.0 | 0.0 | 0.00 | 0.00 | 0.00 | 84 | 1010.6 |
| 20260510020002 | 62 | 147 | 0.0 | 3.0 | 0.00 | 0.00 | 0.00 | 84 | 1010.7 |
| 20260510015823 | 63 | 213 | 0.0 | 3.0 | 0.00 | 0.00 | 0.00 | 83 | 1010.6 |
| 20260510014604 | 63 | 168 | 1.0 | 3.0 | 0.00 | 0.00 | 0.00 | 82 | 1010.7 |
| 20260510013655 | 64 | 240 | 1.0 | 4.0 | 0.00 | 0.00 | 0.00 | 81 | 1010.6 |
| 20260510013002 | 64 | 212 | 1.0 | 5.0 | 0.00 | 0.00 | 0.00 | 81 | 1010.5 |
| 20260510012658 | 65 | 240 | 1.0 | 4.0 | 0.00 | 0.00 | 0.00 | 80 | 1010.5 |
| 20260510011626 | 65 | 165 | 1.0 | 6.0 | 0.00 | 0.00 | 0.00 | 79 | 1010.5 |
| 20260510011606 | 65 | 165 | 1.0 | 5.0 | 0.00 | 0.00 | 0.00 | 79 | 1010.6 |
| 20260510010611 | 66 | 212 | 1.0 | 6.0 | 0.00 | 0.00 | 0.00 | 79 | 1010.5 |
| 20260510005557 | 67 | 213 | 2.0 | 5.0 | 0.00 | 0.00 | 0.00 | 77 | 1010.5 |
| 20260510004504 | 67 | 263 | 2.0 | 5.0 | 0.00 | 0.00 | 0.00 | 75 | 1010.5 |
| 20260510003447 | 68 | 233 | 2.0 | 4.0 | 0.00 | 0.00 | 0.00 | 74 | 1010.4 |
| 20260510003103 | 68 | 199 | 3.0 | 6.0 | 0.00 | 0.00 | 0.00 | 74 | 1010.5 |
| 20260510002442 | 69 | 201 | 2.0 | 6.0 | 0.00 | 0.00 | 0.00 | 72 | 1010.5 |
| 20260510001506 | 69 | 153 | 1.0 | 5.0 | 0.00 | 0.00 | 0.00 | 72 | 1010.5 |
| 20260510001413 | 70 | 153 | 2.0 | 7.0 | 0.00 | 0.00 | 0.00 | 73 | 1010.4 |
| 20260510000341 | 69 | 205 | 2.0 | 7.0 | 0.00 | 0.00 | 0.00 | 71 | 1010.6 |
| 20260510000004 | 69 | 259 | 2.0 | 7.0 | 0.00 | 0.00 | 0.00 | 71 | 1010.6 |
| 20260509235339 | 70 | 230 | 2.0 | 6.0 | 0.00 | 0.00 | 0.00 | 70 | 1010.5 |
| 20260509234630 | 70 | 281 | 2.0 | 7.0 | 0.00 | 0.00 | 0.00 | 70 | 1010.6 |
| 20260509233211 | 71 | 243 | 3.0 | 8.0 | 0.00 | 0.00 | 0.00 | 67 | 1010.5 |
| 20260509233007 | 71 | 220 | 2.0 | 9.0 | 0.00 | 0.00 | 0.00 | 69 | 1010.6 |
| 20260509232143 | 72 | 165 | 2.0 | 9.0 | 0.00 | 0.00 | 0.00 | 67 | 1010.5 |
| 20260509231613 | 72 | 245 | 2.0 | 10.0 | 0.00 | 0.00 | 0.00 | 67 | 1010.6 |
| 20260509231148 | 72 | 257 | 2.0 | 9.0 | 0.00 | 0.00 | 0.00 | 67 | 1010.5 |
| 20260509230140 | 73 | 214 | 2.0 | 8.0 | 0.00 | 0.00 | 0.00 | 66 | 1010.6 |
| 20260509230108 | 73 | 241 | 3.0 | 9.0 | 0.00 | 0.00 | 0.00 | 66 | 1010.6 |
| 20260509225114 | 73 | 213 | 2.0 | 7.0 | 0.00 | 0.00 | 0.00 | 65 | 1010.6 |
| 20260509224503 | 73 | 197 | 1.0 | 7.0 | 0.00 | 0.00 | 0.00 | 66 | 1010.7 |
| 20260509223103 | 73 | 232 | 5.0 | 11.0 | 0.00 | 0.00 | 0.00 | 64 | 1010.9 |
| 20260509221833 | 74 | 153 | 3.0 | 7.0 | 0.00 | 0.00 | 0.00 | 64 | 1011.1 |
| 20260509221503 | 73 | 238 | 4.0 | 8.0 | 0.00 | 0.00 | 0.00 | 64 | 1011.2 |